Flag for Germany

Past Weather in Bad Salzuflen, North Rhine-Westphalia, Germany — Yesterday and Last 2 Weeks

Now
75 °F

Scattered clouds.


Feels Like: 77 °F
Forecast: 68 / 54 °F
Wind: 8 mph from Northwest

Location: Bueckeburg

Current Time: Jul 13, 2020 at 5:20:07 pm

Latest Report: Jul 13, 2020 at 4:20 pm


Visibility: N/A

Pressure: 30.15 "Hg

Humidity: 39%

Dew Point: 48 °F

Location of Bad SalzuflenLocation

Past Weather in Bad Salzuflen — Graph

°F

Bad Salzuflen Temperature Yesterday

Maximum temperature yesterday: 70 °F (at 5:20 pm)
Minimum temperature yesterday: 48 °F (at 5:20 am)
Average temperature yesterday: 60 °F

High & Low Weather Summary for the Past Weeks

 TemperatureHumidityPressure
High75 °F (Jul 13, 3:20 pm)100% (Jul 1, 4:27 pm)30.36 "Hg (Jul 1, 4:27 pm)
Low45 °F (Jul 11, 4:20 am)36% (Jul 13, 3:20 pm)29.68 "Hg (Jul 1, 3:20 am)
Average62 °F76%29.94 "Hg
* Reported Jun 28 3:20 pm — Jul 13 3:20 pm, Bad Salzuflen. Weather by CustomWeather, © 2020

Note: Actual official high and low records may vary slightly from our data, if they occured in-between our weather recording intervals... More about our weather records

Bad Salzuflen Weather History for the Previous 24 Hours

Scroll right to see more
 ConditionsComfort  
Time TempWeatherWind HumidityBarometerVisibility
3:20 pm
Mon, Jul 13
75 °FScattered clouds.3 mph36%30.15 "HgN/A
2:20 pm73 °FScattered clouds.3 mph38%30.18 "HgN/A
1:20 pm72 °FPassing clouds.2 mph41%30.21 "HgN/A
12:20 pm70 °FPassing clouds.5 mph43%30.21 "HgN/A
11:20 am70 °FPassing clouds.5 mph43%30.24 "HgN/A
10:20 am68 °FPassing clouds.6 mph46%30.24 "HgN/A
9:20 am66 °FPassing clouds.3 mph52%30.27 "HgN/A
8:20 am59 °FPassing clouds.2 mph77%30.27 "HgN/A
7:20 am55 °FPassing clouds.No wind77%30.27 "HgN/A
6:20 am48 °FPassing clouds.1 mph94%30.27 "HgN/A
5:20 am48 °FCool.1 mph94%30.27 "Hg1 mi
4:20 am48 °FCool.2 mph94%30.30 "Hg4 mi
3:20 am48 °FCool.2 mph94%30.30 "Hg5 mi
2:20 am50 °FCool.2 mph94%30.30 "Hg5 mi
1:20 am52 °FCool.2 mph88%30.30 "Hg4 mi
12:20 am54 °FCool.1 mph82%30.30 "Hg4 mi
11:20 pm
Sun, Jul 12
55 °FCool.1 mph77%30.33 "Hg4 mi
10:20 pm59 °FCool.2 mph72%30.33 "Hg4 mi
9:20 pm64 °FMild.2 mph52%30.30 "Hg4 mi
8:20 pm66 °FMild.5 mph46%30.30 "Hg4 mi
7:20 pm68 °FMild.6 mph40%30.30 "Hg4 mi
6:20 pm70 °FMild.6 mph40%30.30 "Hg4 mi
5:20 pm70 °FMild.6 mph38%30.33 "Hg4 mi
Weather by CustomWeather, © 2020

See weather overview